DELTA 1 DEB (YO), 312

Orbit data source: Space-Track

DELTA 1 DEB (YO), 312 is space debris in LEO originally from a launch on Tue, 19 Jun 1962 UTC launched from the Air Force Eastern Test Range (AFETR). Debris objects in space refer to the collection of defunct objects orbiting the Earth. Examples of debris include non-operational satellites, rocket bodies, and fragments generated from explosions, collisions, or faulty payload assembly.

Loading next visibility...
Identifier
312, 1962-025C
Orbit
LEO
Last TLE update
22 hours ago
Origin
Manufacturer
RCA/East Windsor
Mission
Spacecraft
Bus & Motor
Unknown
Mass
~1 kg wet, ~1 kg dry
Launch date (UTC)
1962-06-19 (63 years ago)
Launch vehicle
Unknown
Launch site
Air Force Eastern Test Range (AFETR)
Object type
Payload
Rocket body
Debris
Shape & HBR
Unknown
Radar Cross Section
Small (<0.1 m²)

Expand to show TLE details & history

TLE from 22 hours ago
0 DELTA 1 DEB (YO)
1 00312U 62025C   25128.30970066  .00001849  00000-0  32043-3 0  9997
2 00312  58.2461  68.0117 0198598 123.1763 238.8490 14.60501637299748
Epoch: 2025-05-08T07:25Z
Definitive object data (Epoch: 2025-05-08T07:25:58.137Z)
Latitude
-0.00003°
Longitude
90.13741°
Altitude
767.586 km
Speed
7.432 km/s
True Right ascension
04h 32m 02s
True Declination
0° 00' 00"
Sunlit
Object was in daylight at TLE epoch
Visualization TLE readout
Latitude
57.21594°
Longitude
159.70715°
Altitude
596.52 km
Speed
7.623 km/s
Apparent Right ascension
04h 25m 53s
Apparent Declination
21° 10' 30"
Sunlit
Object is in daylight
Visualization observer readout
Local Sidereal Time
13:18:00
Azimuth
315.155° NNW
Elevation
-14.848°
Doppler factor
1
Orbital elements
Apogee altitude
831.424 km
Perigee altitude
550.64 km
Semi-major axis
7,069.169 km
Eccentricity
0.0198598
Inclination
58.2461°
RAAN
68.0117°
Arg. of periapsis
123.1763°
True anomaly
236.92645°
Mean anomaly
238.849°
Eccentric anomaly
237.88523°
Mean motion
3.65166 °/min
BSTAR
0.00032043
Orbital period
98.59 mins
Loading maneuver chart data...
Loading SW <> Apogee altitude chart data...
Loading historical data...
Loading historical data...
Loading historical data...
Loading historical data...
Loading historical data...
Loading historical data...
Loading historical data...
Other satellites on launch #25 in the year 1962 (1962-06-19 UTC)

DELTA 1 DEB (YO) Visibility forecast

Observer location: undefined°, undefined°

Span
Click to sort rows by Start time (UTC) header in descending order
Start Az.
Max El. time (UTC)
Max El. Az.
Max El.
End time (UTC)
End Az.
7 mins2025-05-09 05:17:23.375Z333.604° NNW2025-05-09 05:21:23.375Z52.981° ENE30.161°2025-05-09 05:24:23.375Z106.514° ESE
4 mins2025-05-09 07:01:23.375Z271.901° WNW2025-05-09 07:03:23.375Z228.407° WSW21.912°2025-05-09 07:05:23.375Z192.783° SSW
7 mins2025-05-09 21:22:23.375Z188.273° SSW2025-05-09 21:25:23.375Z124.835° SE34.802°2025-05-09 21:29:23.375Z55.821° ENE
6 mins2025-05-09 23:05:23.375Z278.388° WNW2025-05-09 23:07:23.375Z315.982° NNW25.398°2025-05-09 23:11:23.375Z21.751° NNE
4 mins2025-05-10 04:17:23.375Z359.747° N2025-05-10 04:19:23.375Z35.339° NE17.605°2025-05-10 04:21:23.375Z69.388° E
|